Location: DARK SKY Beskydy - Park tmavé oblohy, www.darkskybeskydy.cz
(49.4926°N, 18.5016°E)
Time: 10:16:26
(UTC+02:00)

BlueWalker 3 - Pass Details

Date: 18 June 2024
Orbit: 480 x 491 km, 53.2° (Epoch: 23 July)

Event Time Altitude Azimuth Distance (km) Brightness Sun altitude
Rises 00:12:50 0° 257° (WSW) 2,533 5.5 -16.7°
Reaches altitude 10° 00:15:01 10° 261° (W) 1,654 4.5 -16.7°
Maximum altitude 00:18:43 63° 343° (NNW) 538 2.3 -16.8°
Drops below altitude 10° 00:22:26 10° 66° (ENE) 1,657 4.8 -16.9°
Sets 00:24:37 0° 69° (ENE) 2,538 5.7 -16.9°
